Location: Eldred Sherwood Park Lake Dam
(42.9416°N, 93.5655°W)
Time: 09:31:37
(UTC+00:00)

Vanguard 2 Rocket - Pass Details

Date: 12 November 2024
Orbit: 554 x 3296 km, 32.9° (Epoch: 06 December)

Event Time Altitude Azimuth Distance (km) Brightness Sun altitude
Rises 12:20:28 0° 212° (SSW) 5,488 10.7 -8.2°
Reaches altitude 10° 12:24:04 10° 204° (SSW) 4,837 10.5 -7.6°
Maximum altitude 12:37:02 36° 144° (SE) 4,023 10.8 -5.3°
Drops below altitude 10° 12:53:47 10° 88° (E) 6,250 12.5 -2.5°
Sets 12:59:12 0° 81° (E) 7,223 12.6 -1.6°
